• In Belarus
  • List of Countries
  • For 7 days
  • Water Temperature
  • Weather Map
  • Weather Widgets
  • user-avatar
    Login

    Hourly Weather Kitzbuhel

    Today, 31 March, Tuesday

    Time Temperature Precipitation Wind Pressure Humidity
    00:00 -8°C° 0 mm 1 mps 678 mmHg 93%
    01:00 -9°C° 0 mm 1 mps 678 mmHg 90%
    02:00 -9°C° 0 mm 1 mps 678 mmHg 89%
    03:00 -10°C° 0 mm 1 mps 677 mmHg 88%
    04:00 -10°C° 0 mm 1 mps 677 mmHg 88%
    05:00 -9°C° 0 mm 1 mps 677 mmHg 87%
    06:00 -9°C° 0 mm 1 mps 678 mmHg 85%
    07:00 -8°C° 0 mm 1 mps 678 mmHg 85%
    08:00 -4°C° 0 mm 1 mps 679 mmHg 79%
    09:00 -1°C° 0 mm 1 mps 679 mmHg 74%
    10:00 +1°C° 0 mm 1 mps 679 mmHg 68%
    11:00 +1°C° 0.1 mm 1 mps 679 mmHg 68%
    12:00 +2°C° 0.1 mm 1 mps 679 mmHg 67%
    13:00 -1°C° 0 mm 2 mps 679 mmHg 67%
    14:00 -1°C° 0.1 mm 2 mps 678 mmHg 68%
    15:00 -1°C° 0.1 mm 2 mps 678 mmHg 68%
    16:00 -1°C° 0.1 mm 2 mps 678 mmHg 69%
    17:00 -1°C° 0.1 mm 1 mps 678 mmHg 75%
    18:00 -3°C° 0.1 mm 1 mps 678 mmHg 80%
    19:00 -6°C° 0.1 mm 0 mps 678 mmHg 86%
    20:00 -6°C° 0 mm 1 mps 678 mmHg 87%
    21:00 -6°C° 0 mm 1 mps 679 mmHg 87%
    22:00 -7°C° 0 mm 1 mps 679 mmHg 88%
    23:00 -7°C° 0 mm 1 mps 679 mmHg 88%

    Tomorrow, 1 April, Wednesday

    Time Temperature Precipitation Wind Pressure Humidity
    00:00 -8°C° 0 mm 1 mps 679 mmHg 88%
    01:00 -9°C° 0 mm 2 mps 678 mmHg 88%
    02:00 -9°C° 0 mm 2 mps 678 mmHg 86%
    03:00 -10°C° 0 mm 2 mps 678 mmHg 83%
    04:00 -10°C° 0 mm 2 mps 677 mmHg 81%
    05:00 -9°C° 0 mm 2 mps 677 mmHg 78%
    06:00 -7°C° 0 mm 1 mps 677 mmHg 75%
    07:00 -7°C° 0 mm 1 mps 677 mmHg 72%
    08:00 -2°C° 0 mm 1 mps 677 mmHg 67%
    09:00 +1°C° 0 mm 1 mps 677 mmHg 62%
    10:00 +3°C° 0 mm 0 mps 678 mmHg 57%
    11:00 +4°C° 0 mm 0 mps 677 mmHg 58%
    12:00 +6°C° 0 mm 1 mps 677 mmHg 59%
    13:00 +7°C° 0 mm 1 mps 677 mmHg 60%
    14:00 +7°C° 0 mm 1 mps 676 mmHg 61%
    15:00 +6°C° 0 mm 1 mps 675 mmHg 62%
    16:00 +5°C° 0 mm 0 mps 675 mmHg 63%
    17:00 +3°C° 0 mm 0 mps 675 mmHg 70%
    18:00 +1°C° 0 mm 0 mps 674 mmHg 76%
    19:00 -2°C° 0 mm 0 mps 674 mmHg 83%
    20:00 -1°C° 0 mm 1 mps 674 mmHg 83%
    21:00 -2°C° 0 mm 1 mps 674 mmHg 82%
    22:00 -2°C° 0 mm 1 mps 674 mmHg 82%
    23:00 -2°C° 0 mm 1 mps 674 mmHg 81%

    Day after tomorrow, 2 April, Thursday

    Time Temperature Precipitation Wind Pressure Humidity
    00:00 -3°C° 0 mm 1 mps 674 mmHg 80%
    01:00 -3°C° 0 mm 1 mps 674 mmHg 79%
    02:00 -3°C° 0 mm 1 mps 673 mmHg 78%
    03:00 -3°C° 0 mm 1 mps 673 mmHg 77%
    04:00 -3°C° 0 mm 1 mps 673 mmHg 77%
    05:00 -2°C° 0 mm 1 mps 673 mmHg 76%
    06:00 -2°C° 0 mm 1 mps 673 mmHg 75%
    07:00 -1°C° 0 mm 1 mps 673 mmHg 74%
    08:00 +2°C° 0 mm 1 mps 673 mmHg 70%
    09:00 +3°C° 0 mm 0 mps 673 mmHg 67%
    10:00 +6°C° 0 mm 0 mps 673 mmHg 63%
    11:00 +7°C° 0 mm 0 mps 673 mmHg 62%
    12:00 +8°C° 0 mm 0 mps 673 mmHg 60%
    13:00 +9°C° 0 mm 1 mps 673 mmHg 59%
    14:00 +9°C° 0 mm 1 mps 672 mmHg 60%
    15:00 +9°C° 0 mm 1 mps 672 mmHg 61%
    16:00 +8°C° 0 mm 1 mps 671 mmHg 62%
    17:00 +6°C° 0 mm 1 mps 671 mmHg 70%
    18:00 +3°C° 0 mm 0 mps 671 mmHg 78%
    19:00 0°C° 0 mm 0 mps 671 mmHg 86%
    20:00 +1°C° 0 mm 1 mps 671 mmHg 86%
    21:00 +1°C° 0 mm 1 mps 671 mmHg 86%
    22:00 0°C° 0 mm 1 mps 672 mmHg 86%
    23:00 0°C° 0 mm 1 mps 672 mmHg 87%

    3 April, Friday

    Time Temperature Precipitation Wind Pressure Humidity
    00:00 0°C° 0 mm 1 mps 672 mmHg 87%
    01:00 -1°C° 0 mm 1 mps 672 mmHg 88%
    02:00 -1°C° 0 mm 1 mps 672 mmHg 89%
    03:00 -1°C° 0 mm 1 mps 672 mmHg 90%
    04:00 -2°C° 0 mm 0 mps 672 mmHg 91%
    05:00 -1°C° 0 mm 0 mps 673 mmHg 91%
    06:00 0°C° 0 mm 0 mps 673 mmHg 92%
    07:00 0°C° 0 mm 0 mps 674 mmHg 92%
    08:00 +1°C° 0 mm 0 mps 674 mmHg 89%
    09:00 +4°C° 0 mm 1 mps 674 mmHg 87%
    10:00 +5°C° 0 mm 1 mps 674 mmHg 84%
    11:00 +6°C° 0.1 mm 1 mps 674 mmHg 81%
    12:00 +7°C° 0.1 mm 1 mps 675 mmHg 77%
    13:00 +8°C° 0.1 mm 1 mps 675 mmHg 74%
    14:00 +7°C° 0.1 mm 1 mps 675 mmHg 76%
    15:00 +7°C° 0.1 mm 1 mps 674 mmHg 78%
    16:00 +6°C° 0.1 mm 1 mps 674 mmHg 80%
    17:00 +5°C° 0.1 mm 1 mps 675 mmHg 85%
    18:00 +4°C° 0.1 mm 1 mps 675 mmHg 89%
    19:00 +2°C° 0.1 mm 0 mps 675 mmHg 93%
    20:00 +1°C° 0 mm 0 mps 676 mmHg 94%
    21:00 +1°C° 0 mm 0 mps 676 mmHg 95%
    22:00 +1°C° 0 mm 0 mps 677 mmHg 95%
    23:00 +1°C° 0 mm 0 mps 677 mmHg 95%

    4 April, Saturday

    Time Temperature Precipitation Wind Pressure Humidity
    00:00 0°C° 0 mm 0 mps 677 mmHg 95%
    01:00 0°C° 0 mm 0 mps 678 mmHg 95%
    02:00 0°C° 0 mm 0 mps 678 mmHg 94%
    03:00 +1°C° 0 mm 1 mps 678 mmHg 93%
    04:00 0°C° 0 mm 1 mps 678 mmHg 92%
    05:00 +1°C° 0 mm 1 mps 678 mmHg 89%
    06:00 +1°C° 0 mm 1 mps 679 mmHg 86%
    07:00 +1°C° 0 mm 1 mps 679 mmHg 83%
    08:00 +4°C° 0 mm 1 mps 679 mmHg 77%
    09:00 +6°C° 0 mm 1 mps 679 mmHg 72%
    10:00 +8°C° 0 mm 1 mps 680 mmHg 66%
    11:00 +9°C° 0 mm 1 mps 680 mmHg 63%
    12:00 +10°C° 0 mm 1 mps 680 mmHg 60%
    13:00 +11°C° 0 mm 1 mps 680 mmHg 58%
    14:00 +11°C° 0 mm 1 mps 680 mmHg 59%
    15:00 +11°C° 0 mm 1 mps 680 mmHg 60%
    16:00 +11°C° 0 mm 1 mps 679 mmHg 61%
    17:00 +9°C° 0 mm 1 mps 679 mmHg 71%
    18:00 +6°C° 0 mm 1 mps 679 mmHg 80%
    19:00 +4°C° 0 mm 1 mps 679 mmHg 89%
    20:00 +4°C° 0 mm 1 mps 680 mmHg 88%
    21:00 +2°C° 0 mm 2 mps 680 mmHg 88%
    22:00 +2°C° 0 mm 2 mps 680 mmHg 88%
    23:00 +2°C° 0 mm 2 mps 680 mmHg 88%

    5 April, Sunday

    Time Temperature Precipitation Wind Pressure Humidity
    00:00 +2°C° 0 mm 2 mps 680 mmHg 87%
    01:00 +1°C° 0 mm 2 mps 681 mmHg 87%
    02:00 +1°C° 0 mm 2 mps 680 mmHg 86%
    03:00 +1°C° 0 mm 2 mps 680 mmHg 85%
    04:00 +1°C° 0 mm 2 mps 680 mmHg 84%
    05:00 +2°C° 0 mm 2 mps 680 mmHg 81%
    06:00 +2°C° 0 mm 2 mps 681 mmHg 78%
    07:00 +3°C° 0 mm 2 mps 681 mmHg 74%
    08:00 +7°C° 0 mm 1 mps 681 mmHg 67%
    09:00 +9°C° 0 mm 1 mps 681 mmHg 61%
    10:00 +12°C° 0 mm 1 mps 682 mmHg 54%
    11:00 +13°C° 0 mm 1 mps 681 mmHg 51%
    12:00 +14°C° 0 mm 1 mps 681 mmHg 49%
    13:00 +15°C° 0 mm 1 mps 680 mmHg 46%
    14:00 +15°C° 0 mm 1 mps 680 mmHg 47%
    15:00 +15°C° 0 mm 2 mps 680 mmHg 49%
    16:00 +15°C° 0 mm 2 mps 679 mmHg 51%
    17:00 +12°C° 0 mm 2 mps 679 mmHg 60%
    18:00 +8°C° 0 mm 2 mps 679 mmHg 69%
    19:00 +5°C° 0 mm 3 mps 678 mmHg 79%
    20:00 +4°C° 0 mm 3 mps 678 mmHg 79%
    21:00 +3°C° 0 mm 3 mps 678 mmHg 79%
    22:00 +2°C° 0 mm 3 mps 679 mmHg 80%
    23:00 +2°C° 0 mm 3 mps 679 mmHg 80%
    Show more